Location: Powder Track
(41.8531°N, 72.3584°W)
Time: 06:20:41
(UTC+00:00)

X-37B - Pass Details

Date: 02 July 2021
Orbit: 383 x 392 km, 45.0° (Epoch: 01 July)

Event Time Altitude Azimuth Distance (km) Brightness Sun altitude
Rises 02:56:56 0° 288° (WNW) 2,258 5.2 -19.7°
Reaches altitude 10° 02:59:01 10° 285° (WNW) 1,402 4.0 -19.9°
Enters shadow 03:01:23 43° 260° (W) 552 1.4 -20.1°
